星链-5361 (STARLINK-5361 )

导读

STARLINK-5361是美国SpaceX公司星链星座的成员卫星,于2023年6月23日发射入轨。作为低轨卫星互联网项目的组成部分,它承担着全球宽带互联网接入服务任务,重点为偏远、服务不足地区提供网络覆盖,同时也可支持移动场景连接。星链计划最终部署规模超四万颗卫星,该卫星加入后进一步扩充了星座在轨容量,提升星座服务覆盖能力与网络稳定性,助力SpaceX实现全球卫星互联网的部署目标。

基本信息
目录编号:
57142
目录名称:
STARLINK-5361
国际标识:
2023-090AT
轨道中心:
EARTH
卫星名称:
星链-5361
卫星全名:
星链-5361 (STARLINK-5361 )
卫星状态:
在轨 (已飞行1090 天)
发射日期:
2023-06-23 UTC
国别 :
美国 (US)
星等 :
--
轨道信息
数据来源 国际轨道数据 AOE轨道数据
星历时间 2026-06-16T17:45:11+0800
23小时前
查看轨道信息
2026-06-15T06:00:00+0800
2天前
查看轨道信息
半长轴 6861.199km 6861.142km
偏心率 0.0000756 0.0000582
轨道倾角 43.005° 43.004°
近地点辐角 258.887° 205.695°
升交点赤经 65.597° 74.009°
平近点角 101.190° 232.448°
近地点 482.543km 482.605km
远地点 483.581km 483.405km
周期 94.267分钟 94.266分钟
每日圈数 15.27576 15.275948
详细信息
固有亮度:
5
最大亮度:
2.4
卫星平台:
Starlink v1.5
覆盖范围:
全球
运营商:
太空探索技术公司
运营商所在国:
美国
制造商(研发单位):
太空探索技术公司
制造商所在国:
美国
使用方式:
暂无
卫星简介
星链(Starlink)计划是由太空探索技术公司(SpaceX)提出的一个巨型低轨卫星互联网星座项目,计划在2019年至2024年间在太空搭建由约1.2万颗卫星组成的“星链”网络,其中1584颗将部署在地球上空550千米处的近地轨道,并从2020年开始工作。该卫星仍在工作。
2D轨道图
3D轨道图
轨道高度分析图
轨道倾角分析图
轨道综合分析图
查看轨道综合分析图